Regional Weather Roundup
Issued by NWS Sioux Falls, SD

Home | Current Version | Previous Version | Graphics & Text | Print | Product List | Glossary On
Versions: 1 2 3 4 5 6 7 8 9 10 11 12 13 14 15 16 17 18 19 20 21 22 23 24 25 26 27 28 29 30 31 32 33 34 35 36 37 38 39 40 41 42 43 44 45 46 47 48 49 50
000
ASUS43 KFSD 061210
RWRFSD

WEATHER ROUNDUP FOR SE SOUTH DAKOTA/SW MINNESOTA/NW IOWA
NATIONAL WEATHER SERVICE SIOUX FALLS SD
600 AM CST SAT FEB 06 2016

NOTE: "FAIR" INDICATES FEW OR NO CLOUDS BELOW 12,000 FEET WITH NO
SIGNIFICANT WEATHER AND OR OBSTRUCTIONS TO VISIBILITY.


SDZ038>040-050-052>070-061300-
SOUTHEAST SOUTH DAKOTA

CITY           SKY/WX    TMP DP  RH WIND       PRES   REMARKS
BROOKINGS      CLOUDY    19  17  92 S9        30.08F WCI   8
CHAMBERLAIN    CLEAR     24  20  83 SW3       30.08F
6HR MIN TEMP:  23; 6HR MAX TEMP:  28;

HURON          CLEAR     23  19  85 S10       30.06F WCI  12
6HR MIN TEMP:  22; 6HR MAX TEMP:  25;

MADISON        FAIR      23  23 100 SW10      30.08F WCI  12
MITCHELL       CLEAR     26  22  84 SW12      30.11F WCI  16
6HR MIN TEMP:  24; 6HR MAX TEMP:  27;

SIOUX FALLS    CLOUDY    20  17  88 SW5       30.13F WCI  13
6HR MIN TEMP:  20; 6HR MAX TEMP:  23;

WINNER         FAIR      27  16  63 SW13      30.08F WCI  16
YANKTON        CLOUDY    21  18  86 S5        30.16S WCI  15
$$

MNZ071-072-080-081-089-090-097-098-061300-
SOUTHWEST MINNESOTA

CITY           SKY/WX    TMP DP  RH WIND       PRES   REMARKS
FAIRMONT       CLOUDY    25  19  80 SW8       30.15F VSB 1/2 WCI  16
JACKSON        FOG       27  25  93 SW9       30.15S VSB 3/4 WCI  17
LUVERNE        FOG       23  21  93 CALM      30.15S VSB 1/4
MARSHALL         N/A    N/A N/A N/A MISG        N/A
MONTEVIDEO     CLOUDY    21  19  93 SW7       30.08F WCI  13
PIPESTONE        N/A     21  16  79 CALM      30.10F
REDWOOD FALLS  CLOUDY    19  16  88 S10       30.10F WCI   7
TRACY          CLOUDY    24  22  91 SW16      30.10F WCI  11
WINDOM         PTCLDY    21  21 100 SW6       30.13F FOG     WCI  14
WORTHINGTON    CLOUDY    19  18  93 SW10      30.14F VSB 1/2 WCI   8
$$

IAZ001>003-012>014-020>022-031-032-NEZ013-014-SDZ071-061300-
NORTHWEST IOWA

CITY           SKY/WX    TMP DP  RH WIND       PRES   REMARKS
CHEROKEE       FOG       25  25 100 SW9       30.20S VSB 1/2 WCI  15
DENISON        CLOUDY    28  28 100 W7        30.21S FOG     WCI  21
ESTHERVILLE    FOG       24  23  96 SW14      30.16S VSB 3/4 WCI  12
LE MARS        FOG       21  21 100 S7        30.20S VSB<1/4 WCI  13
ORANGE CITY    SNOW      19  18  93 CALM      30.17F VSB 1/4
SHELDON        FOG       21  21 100 S6        30.16S VSB 1/4 WCI  14
SIOUX CITY     FOG       16  12  84 E7        30.21F VSB 1/4 WCI   6
6HR MIN TEMP:  16; 6HR MAX TEMP:  31;

SPENCER        FOG       26  22  84 SW10      30.18S VSB 1/4 WCI  16
6HR MIN TEMP:  18; 6HR MAX TEMP:  26;

STORM LAKE     FOG       23  23 100 SW12      30.19S VSB<1/4 WCI  12
$$

ABBREVIATIONS USED IN REMARKS
   TC - TEMPERATURE IN CELSIUS
  WCI - WIND CHILL INDEX
   HX - HEAT INDEX
  VSB - VISIBILITY




USA.gov is the U.S. government's official web portal to all federal, state and local government web resources and services.